Flag for Monaco Weather past 2 weeks in Monaco, Monaco

Now
84 °F

Scattered clouds.


Feels Like: 91 °F
Forecast: 68 / 88 °F
Wind: 7 mph from Southeast

Location: Nice Airport

Current Time: Jul 6, 2015 at 1:46:35 PM

Latest Report: Jul 6, 2015 at 1:00 PM


Visibility: N/A

Pressure: 30.07 "Hg

Humidity: 70%

Dew point: 73 °F

Location of MonacoLocation

Historic Weather in Monaco — Graph

°F

Monaco temperature yesterday

Maximum temperature yesterday: 86 °F (at 4:00 PM)
Minimum temperature yesterday: 77 °F (at 3:30 AM)
Average temperature yesterday: 81 °F

Past Weeks' High & Low Weather Summary

 TemperatureHumidityPressure
High88 °F (Jun 23, 6:00 PM)88% (Jun 23, 10:00 PM)30.24 "Hg (Jun 23, 10:00 PM)
Low66 °F (Jun 23, 6:30 AM)33% (Jun 23, 6:00 PM)29.65 "Hg (Jun 23, 2:00 PM)
Average77 °F65%30.06 "Hg
* Reported Jun 21 12:00 Noon — Jul 6 12:30 PM, Monaco, Weather by CustomWeather, © 2015

Note: Actual official high and low records may vary slightly from our data, if they occured in-between our weather recording intervals... More about our weather records

Advertising

Monaco weather history for previous 24 hours

 ConditionsComfort  
Time TempWeatherWind HumidityBarometerVisibility
12:30 PM
Mon, Jul 6
82 °FScattered clouds.6 mph74%30.09 "HgN/A
12:00 PM84 °FScattered clouds.5 mph70%30.09 "HgN/A
11:30 AM82 °FScattered clouds.3 mph74%30.09 "HgN/A
11:00 AM82 °FScattered clouds.5 mph74%30.09 "HgN/A
10:30 AM82 °FSunny.5 mph70%30.09 "Hg10 mi
10:00 AM82 °FSunny.3 mph66%30.09 "Hg10 mi
9:30 AM82 °FSunny.3 mph70%30.09 "Hg10 mi
9:00 AM82 °FSunny.3 mph70%30.07 "Hg10 mi
8:30 AM82 °FSunny.5 mph66%30.07 "Hg10 mi
8:00 AM82 °FPassing clouds.5 mph58%30.07 "HgN/A
7:30 AM79 °FSunny.9 mph58%30.07 "Hg10 mi
6:30 AM77 °FClear.9 mph65%30.04 "Hg10 mi
6:00 AM77 °FClear.8 mph65%30.07 "Hg10 mi
5:30 AM75 °FClear.6 mph69%30.07 "Hg10 mi
5:00 AM77 °FClear.6 mph65%30.07 "Hg10 mi
4:30 AM75 °FPassing clouds.6 mph69%30.07 "HgN/A
4:00 AM75 °FClear.6 mph69%30.07 "Hg10 mi
3:00 AM77 °FClear.3 mph69%30.07 "Hg10 mi
2:30 AM79 °FClear.3 mph65%30.07 "Hg10 mi
2:00 AM79 °FPassing clouds.3 mph65%30.07 "HgN/A
1:30 AM79 °FClear.5 mph65%30.07 "Hg10 mi
1:00 AM79 °FPassing clouds.3 mph65%30.07 "HgN/A
12:30 AM79 °FClear.2 mph70%30.07 "Hg10 mi
12:00 AM81 °FClear.6 mph74%30.07 "Hg10 mi
11:00 PM
Sun, Jul 5
81 °FClear.7 mph74%30.07 "Hg10 mi
10:30 PM81 °FClear.8 mph74%30.07 "Hg10 mi
10:00 PM81 °FSunny.9 mph74%30.04 "Hg10 mi
9:30 PM81 °FSunny.8 mph74%30.04 "Hg10 mi
9:00 PM81 °FSunny.6 mph74%30.04 "Hg10 mi
8:30 PM82 °FSunny.5 mph70%30.04 "Hg10 mi
8:00 PM82 °FSunny.7 mph70%30.04 "Hg10 mi
7:30 PM84 °FScattered clouds.6 mph66%30.04 "HgN/A
7:00 PM84 °FScattered clouds.3 mph70%30.04 "HgN/A
6:30 PM84 °FScattered clouds.5 mph70%30.04 "HgN/A
6:00 PM84 °FPassing clouds.3 mph66%30.07 "HgN/A
5:30 PM84 °FPassing clouds.5 mph66%30.07 "HgN/A
5:00 PM84 °FPassing clouds.5 mph66%30.07 "HgN/A
4:30 PM84 °FPassing clouds.7 mph70%30.07 "HgN/A
4:00 PM86 °FPassing clouds.6 mph66%30.07 "HgN/A
3:30 PM84 °FPassing clouds.7 mph66%30.07 "HgN/A
3:00 PM84 °FPassing clouds.6 mph66%30.07 "HgN/A
2:30 PM84 °FPassing clouds.6 mph66%30.07 "HgN/A
2:00 PM84 °FSunny.6 mph62%30.07 "Hg10 mi
1:30 PM84 °FSunny.6 mph62%30.07 "Hg10 mi
1:00 PM84 °FSunny.5 mph62%30.07 "Hg10 mi
Weather by CustomWeather, © 2015

See weather overviewHow to use our weather pages